Theta_e
349 349 349 349 351 349 345 345 345 347 349 347 348 348 348 349 349 349 349 347 347 347 346 346 344 342 342 341 340 341 341 341 341 339 337 339 340 339 339 339 341 341 340 340 341 342 341 339 340 340 340 339 339 338 335 335 335 335 335 336 336 336 335 333 331 330 329 330 330 331 332 333 334 335 334 334 333 331 330 329 329 330 332 333 333
347 347 347 346 348 347 343 345 344 343 345 345 348 348 347 349 349 348 347 345 346 346 344 343 342 341 341 341 341 340 340 340 340 339 339 340 341 341 341 340 339 340 341 340 340 342 343 341 340 340 341 341 340 339 337 337 337 336 336 336 337 338 337 336 334 332 331 330 330 330 331 333 334 335 334 333 331 330 329 327 326 326 328 331 332
345 346 346 345 347 346 344 345 344 341 344 345 348 349 348 348 347 344 343 343 344 344 344 342 341 341 341 341 341 340 340 340 340 339 340 340 341 342 341 340 339 339 340 341 340 341 342 342 341 340 340 340 341 340 339 338 338 338 337 336 336 337 338 338 337 335 333 331 330 330 330 331 333 334 334 333 331 330 329 327 326 326 327 328 330
343 344 343 344 347 347 344 344 344 342 344 346 347 347 347 347 345 342 341 341 342 344 343 342 341 341 340 340 341 341 340 340 340 340 340 340 340 341 341 340 340 339 339 341 341 340 339 340 340 341 340 340 340 340 339 338 338 338 338 337 337 336 337 338 338 337 335 333 331 330 329 330 331 332 333 333 333 332 331 331 329 329 329 329 329
341 341 339 342 347 347 343 344 346 343 343 346 344 343 344 344 345 344 343 342 342 343 342 341 341 341 340 340 340 340 339 339 340 340 340 340 339 339 340 340 340 340 339 340 341 341 339 339 339 340 341 340 340 340 340 339 339 338 338 338 337 336 335 336 337 337 337 335 333 331 329 328 328 329 330 331 332 333 333 332 331 331 331 330 330
343 341 338 341 346 345 342 344 347 341 340 344 342 342 343 343 346 346 344 342 342 342 341 342 341 341 341 340 340 340 338 339 340 340 340 340 339 339 339 338 339 339 339 339 340 340 339 338 339 340 340 340 339 338 338 339 339 339 338 338 337 336 336 336 336 336 337 337 336 334 331 328 326 327 327 329 330 330 331 330 330 330 330 330 330
345 342 340 342 344 345 344 344 342 338 341 344 342 343 344 344 346 345 343 343 343 341 341 342 341 341 341 340 340 339 338 338 339 340 340 340 340 339 339 338 338 337 338 338 338 339 340 338 338 339 339 340 340 339 338 337 338 338 338 337 337 337 337 337 337 336 337 337 337 336 334 331 328 327 326 327 327 328 328 329 328 328 328 329 329
344 342 341 341 341 342 343 342 338 339 344 345 344 347 346 345 345 343 343 342 341 341 341 342 342 341 341 340 340 339 338 338 339 340 339 340 340 340 341 340 339 337 335 336 335 336 340 339 336 336 337 338 339 340 338 336 335 337 338 337 337 337 337 338 337 337 338 338 338 337 337 336 333 330 328 328 328 328 328 328 328 328 328 329 329
341 339 337 337 340 342 344 341 339 343 346 344 346 347 346 345 344 344 343 340 340 341 340 340 341 340 340 340 340 339 339 338 339 340 339 340 340 340 342 342 342 340 337 336 336 337 339 338 336 334 333 335 337 339 339 337 335 335 336 335 336 336 336 336 337 337 338 338 338 338 338 338 337 334 332 331 330 330 330 330 330 330 329 329 329
337 335 334 335 338 342 342 339 340 344 345 345 346 345 346 346 344 343 340 336 337 338 337 339 339 339 338 339 340 338 338 340 339 340 340 340 340 340 340 341 342 342 341 340 339 340 340 339 338 336 333 333 335 338 340 340 338 337 336 335 334 334 334 334 335 336 337 338 338 339 339 338 338 337 335 334 333 332 332 332 332 332 332 332 332
336 334 337 338 339 341 341 340 341 342 343 345 346 345 346 346 343 339 332 331 335 336 337 338 338 339 339 339 340 337 336 339 339 339 340 339 339 339 339 340 340 340 341 342 342 342 341 341 341 340 338 336 335 337 338 339 340 339 339 338 337 336 335 335 336 336 336 337 337 338 339 338 338 337 337 336 336 335 334 333 333 333 334 334 334
338 337 342 343 342 343 344 345 344 343 344 346 347 346 344 342 339 333 329 332 337 339 339 339 338 340 340 339 341 339 335 335 337 339 339 339 338 338 338 338 338 339 338 339 341 340 340 341 341 340 340 339 338 338 338 339 339 340 340 339 339 338 338 338 338 336 336 336 336 338 337 338 338 337 337 337 336 337 336 335 333 333 334 334 334
339 340 342 342 341 342 345 346 345 344 346 346 345 343 341 341 338 333 334 337 338 338 340 339 338 340 341 340 339 340 338 335 338 339 339 339 338 337 336 335 335 337 337 337 336 337 339 340 339 339 339 340 339 340 340 339 339 339 338 338 338 338 338 338 337 337 337 337 338 339 337 337 338 338 338 338 337 337 337 337 335 333 333 334 334
340 339 339 339 340 344 346 346 346 345 345 344 342 341 342 341 338 336 338 339 337 337 338 337 338 339 341 339 335 337 340 338 338 339 338 338 337 335 334 334 334 334 336 336 335 335 334 334 336 337 338 338 338 338 338 338 339 338 336 336 337 337 338 338 338 337 338 338 338 339 338 338 340 340 340 340 339 337 336 336 336 334 334 334 334
343 341 342 342 343 346 346 346 347 345 344 344 341 341 341 339 337 338 339 339 339 339 339 337 337 337 337 338 337 336 339 339 338 338 339 337 336 335 334 333 332 331 333 335 336 335 330 327 331 332 332 335 336 337 337 337 337 335 332 332 332 333 335 337 338 338 338 339 338 339 339 340 341 340 340 340 340 338 336 336 336 335 335 335 334
344 344 345 346 345 346 346 346 346 345 343 341 340 341 340 339 339 339 339 340 339 340 340 338 337 336 336 339 338 335 338 340 339 338 338 338 336 335 333 332 331 330 330 331 333 335 331 325 324 326 327 328 330 334 335 335 335 332 330 331 331 330 331 332 335 337 339 339 339 339 339 340 341 341 340 340 340 339 338 337 337 336 336 335 335
345 346 347 347 346 345 345 346 345 343 341 341 341 339 337 339 340 338 338 339 338 339 340 339 338 336 335 337 338 339 340 340 339 338 337 337 336 334 333 333 332 330 330 330 330 333 332 327 322 321 322 322 323 326 327 329 331 330 328 329 329 328 329 328 329 331 334 337 339 339 339 339 339 340 340 340 340 340 340 339 338 338 337 336 336
347 347 347 345 342 342 343 344 344 342 341 341 339 337 336 339 340 339 338 337 338 339 338 338 339 337 335 335 337 339 339 339 338 337 336 336 335 334 333 333 332 332 331 331 330 330 331 329 326 324 321 319 319 320 321 322 323 323 322 322 323 324 325 325 325 326 327 330 334 337 338 339 339 339 339 339 340 340 340 340 340 340 339 337 337
350 347 345 343 340 341 342 342 343 343 343 341 338 337 339 341 340 338 337 337 338 337 337 337 338 338 338 337 338 338 338 338 338 336 336 335 334 333 333 333 332 331 331 330 330 330 329 329 329 328 325 322 320 322 326 325 321 319 319 319 320 320 321 321 322 323 323 324 326 329 332 334 336 338 338 339 339 339 340 340 340 340 340 339 338
350 347 344 344 343 341 340 342 344 344 342 341 339 339 340 340 338 336 334 335 336 337 338 338 338 338 339 338 339 338 336 337 336 334 335 334 333 333 332 333 332 332 332 330 330 330 329 329 328 328 329 327 323 324 329 329 326 324 320 317 318 317 317 318 317 318 319 319 320 322 323 326 329 332 334 336 337 337 338 339 339 340 340 340 340
344 343 343 345 345 342 340 342 344 343 341 341 340 340 339 337 335 335 336 336 336 337 337 337 337 338 339 339 338 337 336 336 335 335 335 334 334 333 332 333 332 333 333 331 331 331 330 330 329 329 329 329 327 326 328 329 328 328 324 318 317 317 316 316 315 315 315 315 316 317 318 319 321 323 326 328 331 332 334 335 337 337 338 339 340
341 339 340 344 344 342 341 342 341 341 341 340 340 339 338 336 335 336 337 337 336 336 336 337 338 339 338 338 338 337 337 336 336 336 336 335 334 332 331 332 332 333 332 332 332 331 331 331 330 329 328 328 329 329 329 330 328 327 324 319 318 318 317 317 317 316 316 315 315 315 315 316 316 318 319 320 323 325 327 329 331 333 334 336 337
346 344 340 341 344 342 341 341 340 341 340 339 339 337 336 337 337 336 335 336 336 336 336 336 337 338 337 336 336 336 336 336 336 335 335 335 334 334 333 331 332 333 332 332 332 332 331 331 330 330 329 328 328 328 329 330 328 325 321 319 318 319 318 318 318 318 317 317 316 316 315 315 315 315 316 316 317 319 320 322 324 326 328 330 332
347 347 343 343 346 344 342 341 340 340 339 339 338 337 336 337 337 337 337 337 336 335 335 336 337 337 336 336 336 335 336 336 336 335 335 335 335 335 334 332 332 333 332 332 333 332 332 332 331 331 329 328 327 328 327 327 328 327 325 322 319 319 319 319 319 319 319 318 318 317 317 316 316 316 316 316 316 316 317 317 318 319 321 323 325
346 346 344 344 344 343 342 341 340 340 339 339 338 337 337 337 338 337 337 336 335 335 336 336 337 336 336 336 336 335 335 336 336 336 335 335 334 334 334 333 333 333 332 333 333 332 332 331 331 331 329 328 327 328 328 328 328 329 328 325 321 320 321 321 321 321 320 319 317 317 317 317 317 317 317 317 317 317 317 317 317 317 318 318 319
347 347 346 344 342 341 341 341 340 339 339 338 337 336 335 335 337 337 335 336 336 336 335 335 334 335 335 335 335 334 334 334 335 335 334 334 334 334 333 334 334 333 332 332 332 332 332 331 331 330 329 329 329 328 329 329 329 328 327 325 322 321 321 321 321 321 321 320 318 316 315 315 316 316 317 317 317 317 317 317 317 317 317 317 318
349 347 346 344 342 341 341 341 340 339 337 335 335 336 334 333 335 336 335 336 336 336 336 335 335 335 335 335 335 334 334 334 335 334 334 334 334 334 334 334 334 333 332 331 331 331 331 330 330 330 329 330 330 329 329 329 330 329 327 324 323 322 323 323 321 320 320 320 319 316 315 314 316 316 317 317 317 317 317 317 317 317 317 317 317
348 347 345 343 342 342 341 340 340 339 337 335 335 337 336 334 334 335 336 335 336 337 336 336 337 336 335 335 335 335 334 333 334 334 334 335 334 333 333 333 334 334 332 330 330 329 329 329 328 328 329 329 329 329 329 329 329 329 327 324 323 323 324 323 321 320 320 320 318 317 315 315 315 316 317 317 317 317 317 317 316 316 317 317 317
347 347 345 343 343 342 340 340 340 339 339 337 336 336 337 336 335 335 336 336 336 337 336 337 337 336 336 335 336 335 332 330 332 334 335 334 332 330 331 332 333 333 333 332 331 329 328 328 328 328 328 328 328 329 329 329 329 329 327 325 323 322 323 322 320 320 320 320 320 318 316 315 315 316 317 317 317 317 317 316 316 316 316 316 316
347 345 344 344 342 341 340 341 341 339 339 338 337 337 336 336 336 335 336 335 336 336 336 336 336 336 336 335 335 335 334 333 332 334 335 333 330 330 332 332 333 333 333 332 333 331 330 329 328 328 329 328 329 329 329 329 329 329 328 326 322 322 323 322 320 320 320 319 319 319 317 316 316 316 317 317 317 317 316 315 315 316 316 316 316
342 338 337 337 336 337 339 340 340 339 338 338 337 337 336 336 336 336 335 335 334 335 335 335 335 335 335 335 335 334 334 334 334 334 333 331 332 333 332 331 332 333 332 332 333 331 330 331 329 328 329 328 329 330 329 328 328 328 329 327 325 324 324 323 322 322 322 321 320 319 319 318 318 317 318 317 318 317 315 314 315 315 316 317 317
339 335 331 328 327 331 335 337 338 339 339 336 333 336 337 336 336 336 336 336 335 335 335 335 334 334 334 335 335 332 332 333 334 333 331 331 333 333 332 331 331 332 331 331 332 330 328 330 330 329 328 328 328 329 329 328 326 327 328 327 326 326 325 324 323 323 323 322 321 321 321 321 319 318 318 318 318 317 315 315 315 315 315 316 317
336 334 329 324 322 323 325 328 330 334 336 331 326 331 335 336 336 336 335 334 334 335 336 335 334 334 334 335 334 333 332 333 334 333 331 331 332 332 332 332 331 332 332 331 332 330 326 326 327 327 328 328 328 328 328 328 328 328 328 327 327 327 327 326 326 326 326 325 324 324 324 324 322 320 319 318 318 318 317 316 317 317 317 317 317
331 328 325 325 324 322 320 320 321 326 330 326 321 324 330 333 336 337 336 335 335 334 335 335 334 334 334 334 334 334 334 333 333 332 331 331 332 331 332 331 331 332 332 330 329 329 329 327 326 326 327 327 327 327 327 328 328 328 328 328 328 328 328 327 327 327 327 327 327 326 326 325 323 322 321 320 318 317 318 318 318 318 318 318 318
328 325 325 325 326 325 322 319 319 321 323 323 321 320 322 326 331 334 336 337 337 336 335 335 335 334 334 334 334 334 333 333 333 332 332 332 332 331 331 330 331 331 331 331 330 329 330 328 326 326 325 323 324 326 327 327 327 327 328 328 328 328 328 327 327 328 328 327 327 327 325 322 321 322 321 319 316 315 316 318 319 318 318 318 318
327 326 326 324 325 326 325 322 320 320 321 322 322 321 320 320 323 329 333 333 335 335 332 332 334 335 334 335 334 334 333 332 333 332 332 332 332 332 331 331 331 331 332 333 332 331 330 329 328 328 325 322 323 326 327 327 328 327 327 327 327 328 328 327 328 328 328 327 327 326 324 322 320 320 319 317 316 315 316 317 319 320 319 318 317
326 327 327 326 325 326 328 326 322 320 321 321 322 321 321 322 321 326 332 333 332 330 325 328 334 335 335 335 334 333 333 333 333 332 331 330 331 332 332 332 333 332 331 330 330 331 330 330 331 330 326 325 328 327 325 326 328 328 327 326 327 327 328 328 327 327 327 327 326 326 325 323 322 321 319 318 318 319 319 319 320 320 319 317 316
326 326 328 328 326 325 328 329 326 322 321 322 324 321 322 328 327 324 331 335 334 330 324 327 335 335 333 334 334 334 333 333 332 331 330 329 330 331 332 332 333 332 330 328 329 329 329 329 329 329 328 329 329 326 323 325 327 328 327 327 326 327 327 327 326 326 326 326 326 326 325 325 324 323 322 321 321 322 323 322 320 319 318 317 316
327 327 328 328 327 325 326 327 327 325 321 322 326 323 322 329 329 323 328 334 335 333 327 328 334 334 331 332 333 334 333 333 332 331 330 330 331 331 331 331 332 331 330 329 330 329 329 327 325 327 329 330 326 322 322 325 327 328 327 326 326 326 326 326 326 326 325 325 325 325 324 324 324 323 324 324 324 325 324 323 321 320 319 318 319
327 326 328 328 328 327 326 327 327 327 324 322 326 326 322 323 324 323 326 330 331 331 327 328 332 333 332 333 333 333 332 331 331 331 330 331 330 330 330 331 331 330 330 329 329 328 328 326 325 325 328 329 327 324 323 325 327 327 326 326 326 326 325 326 326 325 324 323 325 325 325 325 324 324 325 325 325 326 325 323 323 322 320 321 322
330 327 327 328 328 328 328 328 328 328 327 322 324 326 323 321 323 324 326 326 326 326 324 325 329 331 333 335 334 334 333 331 331 330 330 330 330 329 330 330 330 330 330 329 327 326 326 325 325 325 326 328 328 327 325 326 327 327 326 326 326 326 326 326 325 324 323 324 326 326 326 326 325 325 326 325 325 326 325 325 325 324 323 324 324
337 331 326 327 328 329 328 327 327 328 327 323 323 324 324 324 325 326 326 324 324 326 325 325 328 331 332 334 336 335 333 331 331 330 329 329 329 328 329 330 330 330 329 328 327 326 325 324 324 325 326 327 327 327 326 326 326 325 326 326 326 326 325 325 324 322 322 324 326 326 325 326 326 326 327 326 325 325 325 325 325 325 325 324 324
339 332 326 327 328 328 328 327 326 326 326 326 326 323 323 325 326 326 327 326 325 326 326 325 328 330 331 333 333 332 330 330 331 331 331 329 328 328 328 330 331 330 328 328 326 325 325 325 324 325 326 327 327 327 326 326 326 326 326 326 325 324 324 324 324 322 321 322 324 324 324 324 326 327 327 326 325 325 325 325 325 324 323 322 322
338 330 326 326 326 326 327 325 325 328 328 329 329 325 324 326 326 325 328 329 328 327 327 326 328 329 330 331 330 330 330 330 331 332 332 331 331 330 330 330 330 329 328 326 325 325 325 325 325 325 325 325 327 327 327 327 327 326 326 324 322 321 322 322 321 319 318 318 319 321 322 323 325 326 326 326 325 325 325 324 323 322 321 321 321
336 331 328 326 325 325 324 325 328 330 331 331 331 327 325 327 327 326 327 329 328 328 328 328 329 330 330 330 328 329 329 329 330 332 332 332 332 331 330 330 329 328 327 327 326 326 326 326 326 326 325 326 326 326 326 327 327 325 325 324 320 318 318 317 316 315 315 315 318 321 323 324 324 325 325 325 325 324 323 322 321 321 321 321 320
337 333 329 327 325 324 325 328 329 331 332 333 332 329 326 325 326 327 328 328 327 328 329 330 331 332 332 330 328 328 330 331 331 331 331 331 330 329 329 329 328 326 324 325 327 327 327 327 327 327 327 327 327 326 326 325 325 324 324 322 317 314 313 313 314 314 315 317 320 323 324 323 323 324 324 323 323 322 321 321 320 320 320 320 320
336 332 328 327 327 327 328 330 330 331 334 334 333 330 326 324 325 328 330 329 328 329 331 332 333 333 332 332 331 331 332 332 331 330 330 329 329 329 328 328 326 323 321 323 327 328 327 327 327 327 327 327 326 326 325 324 323 322 320 317 315 315 316 318 319 320 320 321 322 323 324 323 322 322 322 321 321 321 320 320 319 319 320 320 320
335 333 331 330 331 331 330 329 329 332 335 334 331 329 327 326 327 330 331 330 329 331 332 332 332 333 334 333 332 331 331 331 330 330 329 328 328 328 327 326 324 324 323 325 327 327 326 326 326 326 326 325 325 324 323 321 320 318 317 316 318 320 321 322 322 323 323 323 322 322 322 322 321 320 320 320 320 319 319 318 319 320 321 321 321
340 338 336 335 334 332 331 331 331 333 336 335 332 330 331 329 328 330 333 332 331 333 333 330 329 331 333 331 328 326 328 328 328 327 327 327 326 325 324 323 323 325 326 327 326 326 325 325 325 324 324 324 323 321 318 317 317 317 317 318 319 321 322 322 323 323 323 322 321 321 320 319 319 320 320 320 319 319 319 320 321 322 322 321 320
344 342 340 339 336 334 335 336 336 335 336 336 333 332 334 331 328 330 333 332 331 331 330 327 327 329 330 327 324 325 327 327 326 326 327 325 323 322 321 323 325 326 326 326 325 325 325 324 324 324 323 322 319 316 315 317 319 320 320 320 320 321 322 322 322 322 321 320 320 319 319 319 319 319 319 318 319 320 320 321 322 321 320 319 319
345 342 341 340 338 338 338 339 339 338 338 337 334 334 335 332 328 329 331 330 330 329 328 327 328 328 328 326 326 327 328 326 326 326 324 322 320 320 322 324 326 325 325 324 324 323 323 323 322 321 319 317 316 316 318 320 321 320 320 320 320 321 321 320 320 320 319 319 318 318 318 319 318 318 318 318 319 320 320 320 320 319 319 319 320
Wind_Speed
9 9 9 8 8 10 10 9 8 6 5 4 3 4 4 3 4 5 6 7 8 9 10 10 9 9 9 9 9 9 9 10 10 10 9 5 7 12 10 8 8 8 8 7 7 8 7 8 10 13 13 13 13 12 12 12 10 10 9 9 9 8 8 7 6 7 8 9 9 10 10 10 10 10 9 9 9 8 8 8 8 8 8 7 7
12 12 12 11 9 10 10 9 10 9 8 6 4 5 5 4 5 6 7 9 9 10 11 10 10 9 9 9 10 9 9 10 10 10 9 6 6 11 11 8 8 8 8 8 8 8 8 8 9 12 14 14 14 14 14 13 11 10 9 9 9 8 8 8 7 7 8 9 10 11 11 11 11 11 11 10 10 9 10 10 10 9 9 9 8
14 13 13 12 8 9 9 9 10 10 10 9 5 5 5 5 6 8 8 9 10 10 10 11 10 9 9 9 10 10 10 10 9 8 7 7 5 9 12 10 8 8 8 9 9 8 9 9 9 10 13 13 14 15 15 14 13 12 11 10 9 9 8 8 8 8 8 9 10 11 11 12 12 12 12 12 11 10 10 10 10 10 10 10 9
13 12 12 11 8 9 10 9 10 10 9 9 7 6 7 7 8 9 9 9 9 9 9 10 9 9 8 8 9 10 10 10 9 7 6 7 5 5 9 11 10 9 9 9 9 9 10 10 9 10 11 12 13 14 14 14 14 13 12 11 11 11 10 10 11 10 9 10 10 11 11 12 13 13 13 13 12 12 11 10 10 10 10 10 10
13 12 12 11 9 10 11 9 10 11 9 9 9 9 10 9 8 8 9 9 9 9 9 8 8 8 7 8 8 9 9 10 9 8 6 5 5 5 5 8 11 11 10 8 8 9 9 10 10 10 11 11 12 13 13 13 14 14 14 13 13 14 13 12 12 11 11 11 11 12 12 12 13 13 14 14 14 13 12 11 11 10 11 11 11
14 12 12 11 10 11 11 9 10 12 10 10 10 9 10 10 7 7 8 9 8 9 8 8 7 7 6 6 6 7 8 8 8 7 6 5 4 4 3 4 7 10 12 10 8 7 8 10 10 10 11 11 11 12 12 12 13 14 14 14 15 16 15 13 12 12 13 13 13 13 13 13 13 13 14 14 14 14 13 12 11 11 10 11 11
13 11 11 11 11 10 10 11 12 12 12 12 11 8 10 9 6 7 8 7 7 9 9 8 8 7 6 5 5 6 6 6 7 7 6 5 4 3 2 1 2 5 8 10 9 6 6 8 9 9 10 10 10 11 11 11 13 14 14 14 14 14 14 14 14 15 15 14 15 14 14 14 14 14 14 15 15 15 14 14 12 11 10 10 10
12 11 12 11 11 11 10 13 13 12 12 12 9 7 8 8 6 6 7 7 7 8 8 9 8 7 6 5 4 5 5 5 6 5 5 4 5 5 4 3 1 2 3 6 10 9 7 6 7 9 10 11 11 11 11 11 12 13 12 13 14 13 14 14 15 16 16 16 16 17 16 16 15 15 15 15 16 16 16 15 15 14 12 11 11
12 13 13 12 12 11 11 14 13 12 13 11 8 8 8 7 7 6 6 8 8 7 8 8 7 7 6 5 4 3 4 5 4 4 4 5 6 5 6 7 6 3 2 3 6 8 7 6 6 7 8 9 10 11 11 10 11 12 12 13 14 14 14 14 14 15 16 16 17 19 19 19 18 17 16 16 16 17 17 17 17 16 15 14 13
12 13 13 13 13 12 14 15 14 13 14 12 11 12 8 5 7 8 11 13 10 8 8 7 7 6 5 5 5 4 2 3 4 3 3 5 5 5 6 7 6 6 5 5 1 4 4 5 4 5 6 7 8 8 9 10 10 11 12 13 14 14 14 14 14 15 16 17 18 19 20 20 20 20 20 19 18 18 18 18 18 18 17 16 15
13 14 13 13 13 13 15 14 15 16 15 14 13 11 7 5 7 11 15 14 10 8 7 6 6 6 5 4 5 6 3 2 3 2 3 4 5 5 6 6 6 6 6 6 3 2 4 3 3 4 6 6 6 7 8 9 9 10 12 13 13 14 15 15 15 16 17 18 19 19 20 19 20 21 22 22 21 21 20 19 18 18 19 18 17
14 14 14 13 12 13 14 13 14 17 15 12 9 7 8 8 9 13 13 9 6 6 4 4 4 5 6 4 5 6 5 3 3 3 3 4 4 5 6 5 6 6 6 6 4 3 5 4 3 2 3 4 5 6 8 9 9 11 12 13 14 15 16 17 17 17 18 19 19 20 21 21 20 20 21 21 21 22 23 22 21 20 20 19 19
15 16 15 15 15 16 16 16 16 16 13 9 7 7 9 8 9 12 8 4 4 4 3 3 3 4 5 4 5 5 4 5 5 4 4 4 4 5 6 6 6 6 6 7 5 3 3 2 3 3 2 1 2 3 5 7 8 9 10 11 12 14 16 17 19 19 19 20 20 20 21 21 21 21 21 21 21 22 23 24 23 22 21 20 20
16 16 17 17 17 16 15 15 14 11 9 7 7 8 7 6 8 8 5 3 4 3 3 3 3 4 4 4 4 5 4 3 3 2 2 3 3 4 5 6 6 6 6 6 7 5 1 2 2 2 1 0 1 2 3 5 6 6 7 8 10 11 13 15 16 18 19 20 20 20 21 21 21 22 23 23 23 22 23 23 23 23 23 22 22
15 15 15 15 14 12 10 9 8 7 6 6 6 6 6 6 6 5 4 4 4 3 3 3 2 3 5 4 4 4 5 2 1 1 2 3 3 3 4 5 6 6 6 5 5 5 4 3 2 3 3 3 3 3 4 6 6 7 8 9 11 11 12 12 12 14 17 18 19 21 21 22 22 23 23 24 24 24 23 24 24 24 24 25 24
14 12 11 10 9 8 5 5 6 6 7 7 6 5 6 6 4 3 4 4 4 3 3 2 1 1 3 4 4 4 2 2 3 2 2 3 3 4 5 2 5 6 6 4 4 4 4 4 3 3 3 3 3 2 3 5 6 8 9 10 11 12 12 11 11 12 14 15 16 18 20 21 22 23 23 23 24 23 23 24 24 25 25 26 26
12 9 8 7 6 5 5 5 5 7 7 6 5 5 5 5 4 4 3 3 3 4 4 2 2 1 1 3 3 3 2 1 1 2 2 2 3 2 4 2 3 7 6 4 4 4 4 6 6 4 4 4 4 4 4 5 6 8 9 10 11 12 12 12 13 13 14 15 15 16 18 19 20 22 22 23 24 24 23 23 24 25 25 26 27
9 8 7 7 7 6 6 6 5 7 7 4 4 4 4 3 4 4 4 4 3 3 4 2 2 2 0 2 2 1 2 2 2 2 3 2 2 1 3 3 3 5 6 5 4 3 3 5 6 6 7 6 6 6 7 8 8 9 10 10 10 10 11 12 12 13 14 15 15 16 17 18 19 20 22 22 23 24 24 24 24 25 25 25 26
7 8 7 7 7 7 7 5 4 6 6 4 3 4 4 3 3 4 4 5 3 2 4 2 2 2 1 1 1 0 1 1 2 1 2 1 1 2 0 4 3 2 2 4 4 4 5 4 3 5 7 8 6 4 5 8 10 10 9 9 8 8 8 9 9 10 12 13 15 16 17 18 19 20 21 21 22 23 24 25 25 25 25 25 26
7 7 7 7 7 7 7 4 2 5 5 4 4 3 4 4 3 4 4 4 3 3 4 2 1 3 2 3 1 0 1 2 1 1 1 3 3 3 1 2 3 2 3 4 3 6 10 8 6 4 5 8 8 3 3 6 7 9 10 9 8 8 7 7 8 8 9 10 11 13 15 17 19 20 21 21 22 22 23 24 25 26 26 26 27
8 7 7 6 6 6 6 3 3 4 3 3 4 3 5 5 4 4 4 3 4 4 4 2 1 3 2 2 1 1 1 0 1 1 1 3 3 2 3 5 5 3 4 5 4 6 8 8 8 6 4 7 8 5 4 6 6 7 10 11 10 11 10 10 11 11 11 11 11 12 13 14 16 17 19 20 21 23 24 25 25 26 26 27 27
7 8 8 7 7 6 3 4 4 3 3 3 3 5 5 4 3 3 2 2 3 3 3 3 2 2 2 1 1 0 1 1 1 1 1 2 3 4 6 6 6 6 5 6 7 7 6 8 8 6 6 6 7 7 6 7 8 9 11 12 10 11 11 11 12 12 13 14 14 14 14 14 15 15 16 17 19 20 22 24 25 26 27 28 28
5 7 9 9 8 5 3 5 5 4 5 4 3 4 4 3 3 4 4 3 2 2 2 3 3 3 2 1 1 1 2 3 3 3 3 2 4 5 6 7 7 7 7 8 9 8 7 8 7 6 8 8 7 8 8 9 12 12 12 12 11 12 12 12 12 13 13 14 14 15 16 16 16 16 16 16 17 18 19 21 22 24 26 28 29
7 7 8 6 6 4 4 6 6 5 5 3 4 5 4 3 4 3 2 3 3 3 2 3 3 3 3 3 3 3 4 4 3 4 4 4 5 5 6 7 8 8 8 9 10 9 8 9 8 6 8 8 8 10 11 11 12 14 13 13 13 12 13 13 13 14 14 14 14 15 16 17 17 17 17 17 17 17 18 19 20 22 23 25 27
9 8 6 5 5 5 5 6 6 7 7 6 7 7 6 4 3 3 2 3 3 3 3 3 3 4 3 3 4 4 5 5 5 5 5 5 6 6 7 8 8 10 10 10 11 11 10 9 9 9 9 9 10 12 12 10 11 15 17 17 15 14 14 14 14 14 15 15 16 16 16 17 17 18 18 18 19 18 18 19 20 21 22 23 24
8 8 7 8 8 7 6 7 7 7 8 8 8 8 8 6 4 4 4 3 4 4 4 3 4 4 4 5 6 6 6 6 6 7 6 6 7 7 8 9 9 10 11 11 12 12 11 9 8 10 11 11 11 11 12 11 11 15 19 18 17 16 16 15 15 15 16 16 17 17 17 17 17 18 19 19 19 19 19 19 20 21 22 22 23
7 7 7 8 8 7 7 8 8 8 9 9 8 7 7 7 6 6 5 5 6 6 7 6 6 6 6 7 8 7 6 7 8 8 7 8 8 8 8 8 9 10 10 11 11 11 11 11 10 10 11 13 13 12 13 14 13 15 18 17 16 17 17 17 17 17 17 17 18 18 18 18 18 18 19 19 20 19 19 19 20 21 22 22 23
6 6 7 7 7 8 9 9 9 9 8 8 8 8 7 7 7 6 6 7 8 9 9 8 7 7 8 9 10 9 9 9 9 9 9 9 9 8 9 9 9 9 10 10 11 11 11 12 12 11 11 14 16 15 15 15 15 16 18 17 16 17 18 19 19 17 17 17 18 18 18 19 19 18 18 18 19 20 20 20 20 21 21 22 23
6 6 7 7 8 9 10 10 10 9 9 9 8 9 9 9 8 7 8 8 8 11 11 9 9 9 9 10 11 11 11 10 10 9 9 10 10 10 10 10 9 9 10 11 12 12 12 12 12 12 13 15 17 16 15 14 14 16 19 18 16 17 18 20 21 19 18 18 18 18 18 18 19 20 19 19 19 19 20 21 21 20 20 21 22
7 6 6 7 8 9 9 10 10 10 10 10 10 10 11 11 11 10 11 9 9 11 12 12 11 10 10 10 11 11 10 10 9 9 10 12 11 11 10 10 9 10 11 12 13 12 12 13 13 13 15 16 17 16 16 16 15 17 19 19 17 17 18 19 21 21 20 19 19 19 19 18 19 19 20 21 21 20 20 20 20 20 20 21 21
7 4 4 6 7 7 8 9 11 11 11 12 12 12 12 12 12 12 12 11 11 11 11 11 11 11 11 11 12 12 11 11 11 10 11 12 11 11 11 9 9 11 12 13 14 13 12 13 14 15 15 16 16 17 18 18 17 17 19 20 20 20 20 20 21 23 22 20 20 20 20 19 18 19 20 22 23 23 22 21 21 21 21 21 21
8 7 8 9 9 9 10 11 12 13 15 14 13 13 14 14 14 13 12 11 11 12 12 12 12 12 12 12 13 12 11 12 12 12 13 12 11 11 10 10 10 11 12 13 14 16 15 13 14 14 15 16 16 17 20 21 20 18 19 20 21 22 23 23 22 23 23 23 22 22 22 22 20 20 20 22 23 24 24 22 22 23 23 23 23
13 14 17 19 19 17 15 14 15 16 18 16 13 13 15 15 15 15 14 13 13 13 14 14 14 13 13 14 14 14 13 12 13 14 14 11 10 10 11 12 12 11 12 13 14 16 16 15 15 15 14 16 16 16 18 20 21 20 20 20 21 21 23 24 24 23 23 25 26 24 24 24 23 22 22 22 23 24 24 25 25 26 25 25 24
20 23 27 29 29 26 22 20 19 19 20 18 15 14 15 16 16 16 14 14 14 14 15 15 14 14 14 15 15 13 13 13 14 15 13 10 10 10 12 13 13 12 13 15 16 18 17 17 17 16 15 16 17 16 16 18 19 20 21 22 22 22 21 22 22 21 21 23 25 25 25 25 26 26 25 25 26 27 27 29 30 29 26 25 24
29 31 34 36 35 32 28 26 23 22 22 20 17 16 16 16 17 16 15 14 14 14 14 14 14 14 15 15 14 13 13 13 14 15 12 11 12 13 14 14 14 13 14 15 17 18 18 19 19 18 18 19 19 19 18 19 19 19 21 22 23 23 22 22 22 21 21 22 24 26 26 26 27 28 28 29 32 32 31 31 32 29 26 25 25
36 36 37 39 41 38 33 30 28 25 23 22 21 20 18 16 17 17 17 16 16 16 16 16 15 15 16 15 14 14 14 14 14 14 13 12 14 15 15 15 15 14 14 17 18 18 20 22 22 19 20 22 23 21 20 21 20 20 21 21 22 23 24 23 21 22 23 24 26 28 27 27 27 29 31 34 35 34 31 31 31 28 27 29 31
39 39 37 39 43 41 37 33 31 29 26 24 23 23 20 17 17 17 17 17 17 17 17 17 15 15 16 16 15 14 14 15 14 14 15 14 15 15 16 16 16 16 17 19 19 18 20 23 24 23 22 22 22 22 22 23 24 22 22 22 22 24 24 23 21 22 23 25 27 27 27 28 28 30 32 34 35 34 32 30 30 30 32 34 34
41 40 38 39 42 42 39 35 31 30 28 25 25 24 21 18 18 17 16 17 18 17 17 16 16 17 17 16 16 15 15 15 15 16 16 15 15 16 17 18 19 19 19 19 18 18 19 21 24 25 23 21 22 25 25 25 25 24 23 24 24 24 24 23 22 22 22 23 25 27 28 28 28 30 33 34 34 32 30 30 32 34 35 34 32
42 41 36 33 37 40 40 38 34 32 31 27 26 25 22 21 20 17 16 17 18 18 17 16 16 17 16 15 15 16 15 15 16 17 17 17 18 20 20 20 21 20 19 18 18 18 19 21 24 26 24 23 25 28 27 25 24 23 23 24 25 25 24 23 23 23 24 25 27 28 29 29 29 30 31 31 32 31 31 33 36 36 35 32 30
43 43 35 28 30 34 37 39 37 34 32 30 27 25 21 21 21 18 18 19 19 19 18 17 17 17 15 15 16 16 16 16 18 19 18 19 22 22 21 20 20 20 20 21 21 20 21 23 25 26 26 26 27 27 26 24 24 23 23 23 25 25 24 24 24 26 27 27 27 27 27 27 28 29 30 32 32 32 33 35 36 35 33 30 28
46 48 41 31 28 29 30 35 38 35 33 32 30 25 21 21 21 20 20 21 20 19 18 18 18 16 15 16 17 17 17 18 20 20 19 20 23 23 22 21 22 24 26 25 24 24 25 26 27 27 28 28 26 24 23 23 24 25 25 25 26 26 26 27 27 28 28 28 27 26 26 27 28 29 32 34 33 32 33 33 33 33 30 28 28
46 50 47 37 31 28 27 32 39 38 35 33 32 29 24 21 21 21 23 23 21 19 17 16 16 16 16 17 17 18 20 20 19 19 20 22 24 23 23 23 24 28 29 26 25 27 27 27 28 28 29 28 26 23 22 23 24 25 25 25 26 27 28 29 30 30 29 27 26 28 29 29 29 31 32 33 33 33 32 30 30 31 30 30 30
47 50 49 41 35 32 31 33 37 39 37 34 33 33 27 21 20 21 23 24 22 20 18 16 15 16 18 19 20 21 22 21 20 20 22 24 25 25 24 23 24 26 27 26 27 28 28 28 29 29 29 30 28 25 24 24 24 25 25 26 27 29 29 29 30 31 31 29 30 33 34 32 32 33 33 32 33 32 30 29 31 31 32 32 31
47 49 49 44 39 37 38 38 37 38 37 35 34 33 27 22 19 21 23 24 24 23 20 18 17 18 19 20 21 22 23 22 23 24 24 25 25 25 24 24 24 24 25 27 29 28 27 28 30 30 31 32 30 27 25 24 24 26 27 28 29 30 30 30 33 35 35 34 35 38 38 35 32 32 32 31 32 32 30 30 32 33 33 33 34
48 49 49 46 42 40 41 40 38 36 33 33 33 32 27 23 21 22 25 26 25 24 23 21 19 19 20 20 22 25 25 24 24 24 24 25 25 25 26 27 26 22 21 24 28 28 28 29 31 32 31 31 29 27 26 25 26 28 28 29 30 32 33 35 38 39 39 37 36 37 37 35 31 30 31 31 32 32 32 33 35 36 36 37 40
49 50 49 46 44 43 43 41 38 34 28 28 30 30 28 26 23 23 26 28 28 26 24 21 20 21 22 22 24 25 24 22 23 24 25 26 26 27 28 27 22 19 18 21 25 27 26 26 28 29 28 27 25 24 25 27 29 31 32 34 36 37 39 39 38 38 37 34 30 31 34 34 30 30 32 33 33 34 34 36 37 37 37 38 41
50 50 49 46 44 43 42 39 36 31 25 25 28 29 29 27 24 23 25 28 29 27 24 21 20 22 24 24 23 22 21 22 26 28 28 27 28 29 28 23 19 19 20 20 22 24 23 23 25 25 23 22 22 25 29 31 34 36 37 37 35 32 31 31 30 29 29 26 24 27 33 34 30 31 35 35 35 35 36 38 39 38 38 39 42
46 47 47 45 43 42 40 37 34 28 24 26 29 29 29 26 23 24 26 27 29 27 24 23 22 23 26 24 22 24 24 25 28 29 29 30 31 31 26 20 19 20 20 20 21 23 23 23 25 26 27 28 30 32 33 33 33 33 31 28 25 22 23 26 26 24 24 24 23 27 33 33 31 32 36 35 35 37 40 40 38 36 36 39 44
38 37 38 38 37 38 36 33 32 27 23 26 28 27 27 25 24 25 26 26 27 27 26 26 25 24 25 25 25 28 28 25 25 28 29 28 26 23 20 18 19 19 19 20 21 22 22 23 24 26 29 30 31 31 31 28 25 22 21 22 21 20 22 26 27 25 25 26 26 27 31 33 30 30 34 36 36 39 41 39 36 36 39 44 49
29 25 23 26 30 32 29 26 26 24 22 25 27 26 26 25 24 24 24 24 25 25 26 27 25 23 25 26 28 30 29 25 24 24 23 21 19 17 17 18 18 18 18 19 19 19 21 22 23 24 26 29 31 31 28 23 17 14 17 22 23 21 21 24 26 27 28 28 26 25 28 31 29 29 33 36 36 37 38 38 39 43 47 50 52
24 20 19 22 26 25 21 19 21 20 19 22 25 25 23 22 22 22 22 21 22 23 23 23 22 22 24 25 25 25 23 20 19 18 17 18 18 17 17 16 17 19 20 21 21 22 23 24 25 26 29 30 29 26 21 18 17 17 20 24 24 22 23 24 26 28 29 28 25 23 26 30 31 31 33 34 36 38 39 41 46 50 51 51 52
Wind_Direction
243 239 242 250 258 261 265 270 272 275 272 271 259 259 269 278 290 293 299 307 310 312 311 314 322 323 322 331 339 335 331 331 330 328 323 313 290 288 292 292 279 263 258 257 250 243 243 246 238 227 219 213 211 207 205 206 209 214 217 220 217 214 210 205 212 224 228 230 234 239 239 238 234 229 228 231 235 240 243 247 251 252 251 253 254
237 235 241 247 253 265 276 278 278 284 287 283 265 273 280 268 275 288 300 310 312 313 314 321 331 330 331 340 344 340 337 336 333 333 324 312 297 293 297 295 288 278 259 255 257 253 248 247 247 239 228 221 217 215 212 208 208 213 220 227 230 232 231 222 218 224 230 232 235 239 241 243 244 240 236 236 239 244 249 252 253 254 254 252 252
240 242 250 258 261 269 275 277 280 283 284 283 275 279 282 273 280 295 307 311 313 315 320 331 338 338 343 346 343 343 342 340 337 334 320 311 302 296 304 306 300 291 270 257 255 257 256 248 248 247 240 232 226 223 220 215 214 216 217 222 227 232 236 233 230 228 230 234 236 238 241 243 246 246 246 244 243 243 247 252 254 255 256 254 252
249 250 253 263 264 267 272 279 285 283 283 285 289 293 288 285 288 301 312 313 320 322 324 335 337 338 347 345 343 347 347 341 338 337 329 322 318 304 305 308 309 305 289 274 260 255 257 256 252 249 247 239 235 233 228 223 221 223 225 225 227 229 227 227 230 232 234 237 237 238 240 242 244 246 249 250 250 248 246 248 253 257 260 260 257
250 254 255 261 258 263 273 282 284 281 280 283 298 308 299 291 289 304 317 320 331 328 327 336 334 336 344 344 347 352 350 344 340 342 346 340 327 318 308 305 308 307 303 294 279 265 258 258 257 252 247 240 238 241 237 230 227 231 234 232 231 231 228 225 227 233 238 242 243 242 241 241 243 245 248 251 253 253 252 250 251 255 260 262 262
246 250 252 255 256 264 273 275 274 281 287 283 293 303 297 296 297 307 318 325 331 326 331 336 329 330 336 345 351 352 355 348 342 347 356 4 346 330 316 299 304 307 307 299 288 284 271 260 257 251 246 243 241 243 242 236 234 237 241 239 234 233 235 237 234 234 236 241 246 248 247 243 241 242 245 249 252 254 255 254 252 252 256 259 262
245 251 253 252 256 264 273 273 270 280 284 280 288 293 290 297 302 309 320 326 328 330 335 329 324 330 332 350 354 350 0 351 347 356 359 4 8 357 329 237 244 279 296 296 291 300 293 267 257 252 249 251 249 250 249 243 238 238 242 245 243 240 244 248 245 240 239 241 245 249 250 249 246 243 242 244 248 252 254 255 253 251 251 254 258
247 250 255 258 261 262 264 270 274 279 277 279 290 286 286 294 293 304 314 317 328 334 330 321 324 330 331 345 346 345 357 349 354 1 353 6 26 23 14 47 86 240 241 278 295 303 300 280 267 262 259 260 260 262 262 253 244 238 238 244 249 250 252 255 254 250 247 245 244 246 248 251 251 249 248 247 248 249 252 254 255 255 252 251 253
249 252 255 259 264 265 262 267 275 274 274 285 294 288 293 299 297 305 308 315 328 322 315 314 316 319 323 329 320 332 354 343 352 3 2 17 27 27 19 38 43 5 139 182 281 298 298 297 285 273 270 268 267 267 264 259 252 245 244 248 252 254 254 256 258 257 256 252 247 245 246 249 250 251 251 251 252 251 251 251 253 255 255 253 251
250 255 256 258 259 260 262 268 274 275 283 297 293 286 290 291 298 308 311 316 315 301 298 298 298 301 305 310 303 311 347 330 334 5 28 29 23 32 28 31 41 24 57 114 217 291 298 299 288 273 265 261 262 265 263 259 258 257 256 257 259 260 260 259 257 258 257 255 252 249 248 250 252 252 250 250 253 254 254 253 252 252 253 253 251
253 255 256 257 257 260 265 269 274 280 294 299 288 287 297 295 304 315 317 318 312 299 288 283 292 290 290 295 291 304 326 314 323 6 49 48 27 35 40 30 33 28 39 66 69 350 344 333 311 287 259 241 237 246 252 250 250 254 256 258 259 260 261 261 258 256 255 253 253 251 251 254 256 255 251 251 252 252 253 255 255 253 251 250 249
255 256 257 259 263 270 271 269 273 283 292 288 280 294 299 296 315 324 323 323 317 306 283 278 288 284 293 289 273 298 318 320 343 21 44 60 48 43 51 40 34 30 23 37 55 45 25 8 358 347 245 233 232 239 248 249 247 247 249 253 255 255 256 257 257 256 255 254 253 253 254 256 257 255 252 252 253 251 250 250 252 253 252 251 250
255 255 259 268 274 273 274 274 274 283 287 277 280 303 304 308 328 330 327 328 320 306 288 293 294 292 301 291 276 284 303 342 15 44 48 65 70 56 55 46 40 37 21 10 10 40 57 360 357 36 89 176 248 247 249 253 252 248 248 252 255 256 255 256 258 258 257 256 255 256 259 259 256 252 253 254 254 252 250 247 247 249 251 252 252
256 258 265 272 275 273 278 278 271 278 287 285 302 317 318 319 323 325 322 313 310 297 287 287 293 311 313 310 298 248 231 332 13 60 57 74 83 64 57 43 35 41 39 18 3 1 328 265 305 348 40 97 272 271 262 254 250 252 255 258 260 260 258 257 258 258 257 257 257 257 258 258 256 253 253 254 253 252 250 247 245 245 248 249 251
260 262 266 269 271 272 277 274 269 283 289 290 311 319 309 305 311 319 311 300 297 276 262 260 271 324 312 302 295 237 211 196 166 132 64 92 96 66 54 17 4 31 48 41 25 5 334 296 263 272 268 260 269 279 278 267 259 268 272 269 266 263 260 259 258 260 258 256 256 256 256 255 256 255 255 254 252 250 249 249 249 248 249 249 249
261 260 261 264 269 275 275 266 270 285 291 302 315 306 294 295 294 286 284 298 306 292 284 285 289 320 306 294 287 277 251 149 154 132 70 105 112 69 63 26 342 12 33 40 47 27 349 327 304 290 277 274 281 275 280 278 273 277 277 275 273 269 265 262 260 262 263 261 258 257 258 257 257 257 255 253 253 252 251 250 252 253 254 253 251
246 249 253 259 270 275 272 270 277 285 294 305 302 289 287 282 273 271 280 288 289 299 315 324 292 275 292 287 282 298 339 32 102 122 113 127 129 59 56 78 342 358 18 32 41 39 360 334 331 324 306 296 286 273 272 272 274 280 281 279 277 274 272 268 265 264 265 267 266 263 262 262 261 261 258 255 255 255 254 252 253 255 256 255 253
230 236 241 250 260 260 263 270 282 291 291 280 281 303 306 289 284 293 291 277 261 286 301 295 286 309 23 273 271 319 358 1 14 110 153 160 149 316 20 61 9 3 26 25 18 33 11 341 337 324 312 308 295 290 286 274 270 275 280 282 277 272 272 271 269 267 266 267 268 267 265 264 264 264 263 261 260 259 257 256 255 256 256 255 255
216 228 235 243 252 253 261 270 289 296 293 287 314 328 309 299 298 285 260 262 267 260 275 269 271 291 228 225 234 139 75 44 18 53 153 184 191 234 97 56 23 352 6 359 344 327 324 320 322 314 310 312 307 301 289 283 283 277 274 278 278 275 273 274 275 273 273 272 271 269 267 265 263 262 262 262 262 261 260 259 259 258 257 256 255
210 220 232 238 243 247 251 257 286 288 285 308 340 335 305 303 290 287 274 269 270 236 248 253 252 282 240 200 190 107 69 67 23 5 302 276 251 223 234 338 339 296 283 314 304 308 319 315 308 306 293 299 308 303 243 265 280 277 276 281 281 282 282 282 286 286 285 284 280 277 274 271 269 266 265 263 261 260 260 261 261 261 260 258 257
217 216 226 230 234 240 251 270 289 283 286 322 331 300 283 286 286 311 329 304 276 249 251 252 247 304 284 183 130 63 53 357 300 341 294 279 260 255 286 291 296 280 278 297 284 296 314 306 305 310 285 288 300 299 266 255 259 261 275 284 282 283 286 285 286 288 289 290 289 287 284 280 278 275 272 270 267 264 262 262 262 261 261 261 261
225 225 226 225 235 237 250 287 287 276 260 250 278 285 283 278 262 269 259 248 277 274 268 272 271 297 293 162 107 94 255 256 276 281 248 267 274 277 289 292 296 298 293 286 274 281 286 279 291 291 273 283 288 285 278 263 258 256 266 280 284 284 288 289 289 288 288 288 288 288 288 286 284 282 280 277 275 271 269 267 265 264 263 262 263
209 226 231 229 241 235 208 257 263 249 245 231 238 275 287 276 243 241 231 217 249 266 255 268 279 279 278 302 316 272 281 278 282 289 281 281 282 284 294 302 304 302 300 289 284 291 284 279 290 268 261 281 281 273 272 263 265 269 272 281 287 287 288 292 293 292 291 289 289 289 289 290 289 288 286 283 280 278 276 273 271 269 267 266 264
199 217 234 229 231 225 208 231 239 230 233 226 226 233 231 244 244 241 238 214 210 221 232 247 272 274 265 278 281 269 277 277 268 278 283 282 285 290 295 302 302 295 298 295 291 293 278 275 283 262 255 272 271 266 268 268 274 283 287 287 288 290 290 291 292 293 293 291 289 288 288 290 291 291 290 289 287 283 281 279 277 275 273 272 270
206 207 206 203 216 230 225 222 228 229 220 213 223 220 204 209 229 229 234 242 228 222 231 236 254 269 266 266 271 274 281 281 270 268 271 279 292 299 294 298 298 294 296 293 292 296 289 282 276 258 250 256 265 274 279 281 281 283 284 285 290 294 291 289 289 290 292 290 288 286 285 286 287 289 289 289 290 289 287 285 283 281 279 276 275
207 199 189 201 218 231 233 228 230 231 222 217 220 220 212 203 208 220 227 247 249 236 242 246 246 256 264 264 265 268 275 276 273 271 272 275 283 289 290 291 291 293 295 294 298 302 298 295 285 275 271 258 256 269 273 270 265 269 276 282 288 293 291 289 289 292 293 291 288 285 283 283 284 285 286 286 288 290 291 290 288 286 284 281 278
198 197 196 206 214 223 230 232 233 233 232 230 220 220 228 216 210 214 216 236 247 241 240 241 245 253 255 258 261 264 274 277 273 270 268 268 272 276 279 284 291 297 299 297 298 297 292 292 286 284 283 271 268 275 272 264 254 257 270 282 291 295 294 292 295 297 296 295 293 289 285 284 284 284 284 284 285 288 292 293 293 291 288 285 281
193 192 196 204 208 219 227 228 230 229 230 230 216 213 228 229 223 219 218 231 245 249 247 240 245 257 262 265 265 259 257 258 261 266 266 265 270 274 273 277 286 292 297 296 294 295 296 295 292 287 280 276 283 291 286 274 261 261 277 292 297 298 295 295 300 302 298 296 295 292 289 286 285 285 284 283 283 285 290 293 295 293 292 289 285
192 187 193 204 210 220 227 225 225 222 222 227 220 212 219 225 224 225 229 231 242 255 261 254 245 247 254 260 265 268 267 262 264 269 268 268 274 280 280 280 283 284 290 294 293 297 300 297 297 294 290 291 295 298 296 285 274 277 291 299 297 293 291 294 300 301 298 296 295 292 289 284 282 283 283 284 283 285 288 290 292 292 292 291 290
196 190 196 209 221 230 226 220 222 224 221 225 228 224 222 223 221 224 230 229 235 251 265 270 263 254 253 252 255 264 270 269 269 267 265 272 280 283 281 282 283 283 287 291 289 292 298 298 299 297 296 300 301 298 294 287 283 285 290 296 297 293 288 290 295 295 294 296 294 292 289 285 283 283 284 285 284 284 285 285 286 287 288 289 290
204 213 231 234 236 234 224 220 223 226 223 222 227 230 229 228 226 227 230 230 234 243 254 265 271 268 265 262 258 258 259 260 261 259 262 268 272 273 277 283 285 284 288 291 290 294 300 298 297 296 294 293 292 288 286 288 288 279 279 290 297 296 292 291 290 290 292 295 296 294 292 288 287 288 290 290 287 285 283 281 281 281 282 284 286
215 243 261 262 250 233 223 221 221 222 225 228 230 230 231 233 231 231 232 232 238 243 245 247 251 257 259 259 260 261 261 260 260 261 264 265 268 270 272 278 278 278 286 290 291 299 305 300 294 294 292 289 288 285 287 294 298 288 282 286 289 291 295 296 294 293 294 298 300 298 297 294 293 295 296 295 294 292 287 285 285 283 280 280 282
220 241 252 254 249 239 229 226 226 225 227 234 238 231 232 237 236 236 235 234 236 239 242 243 243 246 248 250 255 258 260 261 261 266 268 268 276 280 278 283 285 282 287 291 289 294 302 304 301 298 292 288 287 284 285 291 298 298 293 287 283 284 288 291 294 294 294 298 300 298 295 293 294 297 297 297 298 297 291 288 291 291 285 279 278
230 243 248 249 247 241 236 234 234 229 229 236 240 233 233 236 237 239 241 241 242 241 242 245 245 245 244 244 249 253 257 260 261 266 268 262 267 271 270 279 284 280 285 292 292 292 295 300 303 300 295 292 288 283 283 285 288 292 291 287 286 284 281 282 284 283 283 288 290 289 289 291 294 296 298 300 303 302 297 293 292 293 288 281 279
239 245 248 250 249 245 242 241 238 231 230 235 238 236 237 237 236 238 238 239 242 243 244 243 242 244 245 245 248 250 252 255 259 267 267 255 256 263 266 270 274 277 282 285 287 289 290 294 299 298 298 301 297 288 284 285 285 285 286 287 287 285 286 287 282 277 274 273 274 278 284 291 295 295 297 302 305 304 300 298 296 292 288 287 290
245 249 251 253 252 248 246 246 242 237 234 236 239 242 241 236 237 240 239 239 239 241 245 243 239 241 245 247 249 249 251 253 256 261 259 254 261 271 278 277 272 277 284 281 281 284 285 290 295 296 300 305 304 299 294 291 289 288 288 289 286 285 290 292 285 280 279 278 279 282 286 291 293 294 297 301 303 301 298 297 295 290 291 297 299
245 248 252 256 254 250 248 248 247 244 242 240 243 248 244 235 238 242 242 243 244 246 251 247 239 238 241 245 249 251 254 256 257 258 257 260 268 275 285 285 276 281 291 290 288 288 287 288 289 292 297 300 299 301 302 299 295 291 290 290 288 287 289 288 284 282 282 283 284 286 287 290 291 293 297 298 299 298 296 294 291 289 295 300 299
244 246 251 257 257 253 249 249 250 248 245 242 243 249 243 232 237 243 243 243 245 249 253 248 241 241 242 246 251 252 252 256 260 263 264 268 271 272 279 281 278 284 294 294 294 296 297 297 296 296 296 294 296 302 304 303 298 293 293 294 295 295 294 293 291 289 286 283 283 284 286 286 286 289 292 293 294 294 292 291 293 295 298 298 296
242 243 247 254 258 256 252 251 253 253 250 245 243 245 240 231 235 242 243 242 242 246 250 246 242 245 249 254 258 259 261 266 266 267 269 271 271 273 277 278 279 287 294 295 297 297 297 301 304 301 293 290 296 302 303 302 297 292 293 296 298 300 300 296 292 290 289 287 284 284 286 285 285 286 287 289 291 289 287 291 296 298 297 296 294
242 240 242 249 255 257 255 254 253 253 251 247 242 240 237 232 235 240 243 243 243 247 250 246 243 243 247 251 254 257 263 266 264 265 267 267 271 278 283 281 281 285 289 292 294 292 293 298 302 298 292 289 293 299 302 300 295 293 294 294 295 297 295 291 289 290 293 292 285 282 282 282 284 283 283 285 285 282 285 291 293 292 294 295 294
243 242 242 244 248 255 259 257 253 250 250 248 243 241 237 233 235 239 242 245 248 251 253 251 247 244 243 248 253 256 257 258 260 261 262 265 272 280 281 279 281 284 286 288 287 287 291 296 297 294 292 290 291 296 299 296 292 292 294 296 295 294 293 293 294 296 297 293 286 281 280 280 280 280 281 284 283 282 286 289 288 287 290 291 288
243 244 243 240 242 251 258 257 254 252 251 250 247 246 242 238 240 242 245 247 249 250 253 253 250 248 246 247 251 255 259 265 271 270 266 267 272 277 276 277 281 283 284 283 280 280 286 291 292 291 289 287 288 290 291 290 291 292 293 295 295 295 296 297 298 299 299 295 288 285 285 284 283 282 282 284 285 285 284 283 282 281 282 282 281
242 242 242 239 238 245 250 252 254 254 254 252 252 251 249 244 243 245 247 248 246 245 246 247 249 251 250 248 250 257 263 271 277 278 277 277 279 280 278 277 280 280 277 272 268 272 281 287 287 285 283 283 285 286 286 288 290 290 292 294 295 296 297 297 297 298 299 297 293 291 290 288 285 285 285 285 286 285 281 280 282 284 286 287 283
240 240 242 240 239 243 246 249 253 254 255 255 254 252 248 245 245 246 246 246 245 243 241 241 244 247 250 254 258 263 267 272 278 283 287 288 288 286 284 284 286 284 276 266 263 270 279 283 281 280 280 282 284 286 287 288 288 290 292 295 296 295 295 295 295 295 296 295 294 292 290 288 286 287 286 285 285 284 283 285 287 288 291 289 282
238 239 241 241 240 242 245 248 250 252 253 254 255 251 245 244 246 245 244 244 244 245 245 243 243 247 252 258 260 263 266 271 278 284 289 290 289 290 292 294 293 289 280 271 268 273 278 278 277 278 279 279 280 283 283 284 289 292 294 294 294 292 290 291 291 291 291 291 291 290 289 288 289 288 286 285 285 286 286 287 288 287 286 282 279
236 238 239 239 240 243 245 246 248 249 247 246 251 251 246 245 246 245 244 245 244 245 245 245 248 253 257 260 262 265 269 273 278 285 289 290 290 292 295 294 291 289 287 278 271 272 275 275 275 277 276 277 281 282 280 283 290 293 291 291 291 289 288 288 287 289 291 293 292 290 289 291 294 290 287 287 287 288 288 287 288 288 285 282 282
235 237 237 238 240 242 243 245 248 249 242 237 246 253 251 250 248 244 243 243 242 243 246 249 254 257 258 259 264 270 275 280 285 288 288 289 291 293 292 288 284 289 291 283 273 273 277 279 279 278 277 279 282 281 281 284 288 288 289 289 289 288 288 288 289 291 294 295 293 289 287 290 294 290 287 288 288 288 288 289 290 290 286 286 289
235 237 238 238 240 243 245 247 250 251 245 243 250 257 256 251 244 241 242 242 241 243 246 250 255 257 259 264 273 283 286 285 286 287 287 290 292 291 289 286 285 287 287 281 274 273 275 277 277 275 275 276 277 279 283 286 285 285 287 287 287 287 287 289 289 290 291 292 291 289 288 290 293 290 288 289 289 289 291 291 293 293 290 289 294
233 236 238 238 241 246 249 253 255 254 246 246 253 259 256 247 239 240 243 242 243 245 247 251 256 262 268 273 281 287 286 281 282 286 289 292 293 290 288 287 282 279 278 278 280 281 281 280 278 276 274 276 280 286 289 289 288 289 288 290 296 295 287 287 289 289 291 292 291 291 290 291 293 292 291 291 290 291 292 293 293 294 294 296 299
229 228 232 236 242 249 252 253 255 250 241 243 252 258 255 247 239 241 245 246 248 249 248 251 258 268 275 278 279 281 280 279 282 285 287 290 292 290 287 283 279 277 279 282 284 284 284 283 281 280 279 282 288 292 292 292 296 300 294 295 301 298 288 287 290 292 294 292 291 293 293 292 294 294 295 295 293 291 292 295 298 300 303 305 306
224 223 227 234 241 246 247 243 244 242 236 241 251 253 250 245 241 242 244 244 246 250 252 256 263 269 272 274 275 277 279 279 280 281 285 290 292 290 284 279 278 280 280 278 276 276 278 279 279 281 283 286 288 290 290 293 303 307 302 300 300 295 291 291 290 291 293 291 291 296 295 294 296 296 295 295 294 295 298 303 306 307 309 310 310